Location: Newark
(33.9035°S, 18.4112°E)
Time: 11:01:27
(UTC+00:00)

STARLINK-1075 - Pass Details

Date: 18 January 2020
Orbit: 349 x 350 km, 53.0° (Epoch: 18 February)

Event Time Altitude Azimuth Distance (km) Brightness Sun altitude
Exits shadow 01:54:28 - 50° (NE) 2,135 6.7 -20.9°
Enters shadow 02:50:04 -74° 305° (NW) 12,627 10.5 -12.1°
Maximum altitude 03:29:44 50° 49° (NE) 462 3.4 -5.2°
